User: anonymous   Login
Location: Unspecified
(0.0000°N, 0.0000°E)
Time: 01:33:00
(UTC+00:00)
Language:

N. Korean satellite - Orbit

View from above orbital plane
View from above orbital plane
View from above satellite
View from above satellite

Ground track
Ground track

The orbit data is extracted from the following two-line orbital elements,

1 39026U 12072A   20049.57363465 +.00000773 +00000-0 +30162-4 0  9999
2 39026 097.2195 049.9679 0036246 312.4114 047.4061 15.28341147398936
Epoch (UTC): 18 February 2020 13:46:02
Eccentricity: 0.0036246
inclination: 97.2195°
perigee height: 456 km
apogee height: 505 km
right ascension of ascending node: 49.9679°
argument of perigee: 312.4114°
revolutions per day: 15.28341147
mean anomaly at epoch: 47.4061°
orbit number at epoch: 39893

The dashed part of the orbit path shows where the satellite is in the earth's shadow,  

DLR